AFR31 LFPG-LFBO

Flight info

Callsign AFR31
Flight time 0h 57m
Altitude 35000
Route ERIXU DCT ETAMO DCT GUERE DCT NARAK
Aircraft A320/M-SDE3FGHIRWY/LB1

Departure

Time 2026-05-05 20:23
Airport Charles de Gaulle International Airport (LFPG)

Arrival

Time 2026-05-05 21:21
Airport Toulouse-Blagnac Airport (LFBO)
Time Latitude Longitude Altitude Speed Heading
2026-05-05 19:46 49.00535 2.56394 355 ft 0 kts 225°
2026-05-05 20:10 49.00545 2.56408 364 ft 4 kts 219°
2026-05-05 20:11 49.00567 2.56431 363 ft 4 kts 205°
2026-05-05 20:11 49.00592 2.56447 364 ft 4 kts 203°
2026-05-05 20:11 49.00608 2.56463 358 ft 2 kts 265°
2026-05-05 20:11 49.00609 2.56465 354 ft 0 kts 265°
2026-05-05 20:16 49.00608 2.56458 354 ft 1 kts 264°
2026-05-05 20:16 49.00607 2.56437 361 ft 2 kts 265°
2026-05-05 20:16 49.00605 2.56409 361 ft 3 kts 265°
2026-05-05 20:17 49.00604 2.56368 357 ft 8 kts 266°
2026-05-05 20:17 49.00601 2.56232 354 ft 17 kts 257°
2026-05-05 20:17 49.00578 2.56049 359 ft 18 kts 253°
2026-05-05 20:17 49.00566 2.55903 363 ft 12 kts 277°
2026-05-05 20:18 49.00564 2.55788 362 ft 13 kts 265°
2026-05-05 20:18 49.00556 2.55625 354 ft 12 kts 267°
2026-05-05 20:18 49.00554 2.55499 354 ft 12 kts 269°
2026-05-05 20:18 49.00539 2.55393 360 ft 9 kts 227°
2026-05-05 20:19 49.00499 2.55345 359 ft 7 kts 209°
2026-05-05 20:19 49.00437 2.55335 354 ft 13 kts 169°
2026-05-05 20:19 49.00354 2.55369 363 ft 13 kts 163°
2026-05-05 20:19 49.00240 2.55421 361 ft 21 kts 162°
2026-05-05 20:20 49.00105 2.55481 357 ft 11 kts 165°
2026-05-05 20:20 49.00057 2.55498 354 ft 7 kts 167°
2026-05-05 20:20 48.99998 2.55521 357 ft 10 kts 165°
2026-05-05 20:20 48.99946 2.55548 361 ft 6 kts 154°
2026-05-05 20:21 48.99909 2.55581 359 ft 8 kts 149°
2026-05-05 20:21 48.99858 2.55653 356 ft 14 kts 123°
2026-05-05 20:21 48.99818 2.55803 354 ft 9 kts 129°
2026-05-05 20:21 48.99758 2.55808 354 ft 14 kts 179°
2026-05-05 20:22 48.99650 2.55816 358 ft 11 kts 179°
2026-05-05 20:22 48.99603 2.55880 356 ft 15 kts 88°
2026-05-05 20:22 48.99612 2.56050 355 ft 22 kts 86°
2026-05-05 20:22 48.99649 2.56710 356 ft 99 kts 84°
2026-05-05 20:23 48.99724 2.58061 381 ft 151 kts 84°
2026-05-05 20:23 48.99798 2.59633 1048 ft 151 kts 86°
2026-05-05 20:23 48.99880 2.61259 1750 ft 159 kts 79°
2026-05-05 20:23 48.99982 2.63049 2245 ft 181 kts 80°
2026-05-05 20:24 49.00099 2.65091 2723 ft 206 kts 83°
2026-05-05 20:24 49.00226 2.67385 3267 ft 230 kts 83°
2026-05-05 20:24 49.00364 2.69933 3854 ft 253 kts 84°
2026-05-05 20:24 49.00503 2.72633 4710 ft 263 kts 84°
2026-05-05 20:25 49.00643 2.75450 5659 ft 269 kts 85°
2026-05-05 20:25 49.00718 2.78325 6601 ft 274 kts 94°
2026-05-05 20:25 49.00490 2.81233 7520 ft 278 kts 98°
2026-05-05 20:25 49.00178 2.84169 8464 ft 282 kts 101°
2026-05-05 20:26 48.99835 2.87135 9398 ft 287 kts 102°
2026-05-05 20:26 48.99484 2.90165 10165 ft 298 kts 102°
2026-05-05 20:26 48.99118 2.93392 10527 ft 320 kts 101°
2026-05-05 20:26 48.98689 2.96780 11158 ft 330 kts 108°
2026-05-05 20:27 48.97691 2.99884 11899 ft 333 kts 128°
2026-05-05 20:27 48.96012 3.02317 12681 ft 335 kts 149°
2026-05-05 20:27 48.93867 3.03667 13459 ft 336 kts 171°
2026-05-05 20:27 48.91536 3.03744 14165 ft 337 kts 191°
2026-05-05 20:28 48.89331 3.02547 14855 ft 340 kts 211°
2026-05-05 20:28 48.87537 3.00209 15548 ft 343 kts 232°
2026-05-05 20:28 48.86420 2.97007 16252 ft 348 kts 252°
2026-05-05 20:28 48.86030 2.93336 16956 ft 353 kts 262°
2026-05-05 20:29 48.85371 2.89764 17611 ft 354 kts 240°
2026-05-05 20:29 48.83903 2.86750 18264 ft 357 kts 230°
2026-05-05 20:29 48.82350 2.83787 18683 ft 361 kts 231°
2026-05-05 20:29 48.80831 2.80757 18798 ft 361 kts 232°
2026-05-05 20:30 48.79336 2.77685 18873 ft 361 kts 231°
2026-05-05 20:30 48.77515 2.75060 19293 ft 364 kts 213°
2026-05-05 20:30 48.75310 2.73265 19903 ft 366 kts 205°
2026-05-05 20:30 48.73005 2.71582 20511 ft 369 kts 204°
2026-05-05 20:31 48.70673 2.69905 21071 ft 373 kts 204°
2026-05-05 20:31 48.68310 2.68220 21643 ft 377 kts 204°
2026-05-05 20:31 48.65920 2.66521 22176 ft 381 kts 204°
2026-05-05 20:31 48.63509 2.64812 22723 ft 385 kts 203°
2026-05-05 20:32 48.61068 2.63083 23259 ft 389 kts 203°
2026-05-05 20:32 48.58603 2.61332 23720 ft 393 kts 203°
2026-05-05 20:32 48.56123 2.59566 24166 ft 396 kts 204°
2026-05-05 20:32 48.53609 2.57778 24540 ft 402 kts 204°
2026-05-05 20:33 48.51066 2.55971 24952 ft 405 kts 204°
2026-05-05 20:33 48.48500 2.54152 25398 ft 408 kts 204°
2026-05-05 20:33 48.45954 2.52347 25824 ft 411 kts 204°
2026-05-05 20:33 48.43351 2.50508 26253 ft 414 kts 203°
2026-05-05 20:34 48.40730 2.48663 26686 ft 417 kts 204°
2026-05-05 20:34 48.38093 2.46810 27124 ft 419 kts 204°
2026-05-05 20:34 48.35438 2.44944 27550 ft 422 kts 204°
2026-05-05 20:34 48.32768 2.43068 27969 ft 425 kts 204°
2026-05-05 20:35 48.30079 2.41180 28378 ft 427 kts 204°
2026-05-05 20:35 48.27375 2.39281 28781 ft 430 kts 204°
2026-05-05 20:35 48.24651 2.37368 29177 ft 433 kts 204°
2026-05-05 20:35 48.21911 2.35449 29570 ft 436 kts 203°
2026-05-05 20:36 48.19157 2.33529 29967 ft 438 kts 204°
2026-05-05 20:36 48.16388 2.31599 30337 ft 439 kts 204°
2026-05-05 20:36 48.13613 2.29664 30684 ft 440 kts 204°
2026-05-05 20:36 48.10791 2.27866 31010 ft 441 kts 198°
2026-05-05 20:37 48.07859 2.26717 31317 ft 441 kts 189°
2026-05-05 20:37 48.04754 2.26244 31480 ft 446 kts 180°
2026-05-05 20:37 48.01679 2.26391 31666 ft 449 kts 176°
2026-05-05 20:37 47.98556 2.26606 31993 ft 450 kts 177°
2026-05-05 20:38 47.95428 2.26812 32392 ft 449 kts 177°
2026-05-05 20:38 47.92314 2.27011 32798 ft 448 kts 177°
2026-05-05 20:38 47.89201 2.27206 33205 ft 446 kts 177°
2026-05-05 20:38 47.86102 2.27399 33612 ft 445 kts 177°
2026-05-05 20:39 47.83008 2.27593 33989 ft 444 kts 177°
2026-05-05 20:39 47.79924 2.27791 34297 ft 444 kts 178°
2026-05-05 20:39 47.76835 2.27988 34618 ft 443 kts 178°
2026-05-05 20:39 47.73748 2.28185 34811 ft 443 kts 178°
2026-05-05 20:40 47.70666 2.28383 34858 ft 442 kts 178°
2026-05-05 20:40 47.64552 2.28766 34854 ft 442 kts 178°
2026-05-05 20:41 47.58408 2.29147 34861 ft 442 kts 178°
2026-05-05 20:41 47.52265 2.29528 34865 ft 441 kts 178°
2026-05-05 20:42 47.46127 2.29920 34862 ft 441 kts 178°
2026-05-05 20:42 47.39987 2.30293 34865 ft 441 kts 178°
2026-05-05 20:43 47.33894 2.30667 34868 ft 441 kts 178°
2026-05-05 20:43 47.27747 2.31056 34876 ft 441 kts 178°
2026-05-05 20:44 47.21616 2.31438 34875 ft 441 kts 178°
2026-05-05 20:44 47.15489 2.31816 34877 ft 441 kts 178°
2026-05-05 20:45 47.06287 2.32377 34882 ft 440 kts 178°
2026-05-05 20:45 47.00197 2.32758 34882 ft 441 kts 178°
2026-05-05 20:46 46.94063 2.33141 34888 ft 441 kts 178°
2026-05-05 20:46 46.87934 2.33511 34891 ft 441 kts 178°
2026-05-05 20:47 46.81843 2.32912 34885 ft 439 kts 194°
2026-05-05 20:47 46.75940 2.30620 34888 ft 439 kts 195°
2026-05-05 20:48 46.70030 2.28342 34884 ft 439 kts 195°
2026-05-05 20:48 46.64125 2.26091 34891 ft 439 kts 195°
2026-05-05 20:49 46.58217 2.23829 34882 ft 439 kts 195°
2026-05-05 20:49 46.52309 2.21576 34904 ft 438 kts 195°
2026-05-05 20:50 46.47405 2.19712 34905 ft 438 kts 195°
2026-05-05 20:50 46.40558 2.17102 34910 ft 437 kts 195°
2026-05-05 20:51 46.34672 2.14864 34907 ft 437 kts 195°
2026-05-05 20:51 46.28792 2.12636 34912 ft 437 kts 195°
2026-05-05 20:52 46.22917 2.10424 34909 ft 436 kts 195°
2026-05-05 20:52 46.16988 2.08573 34898 ft 436 kts 188°
2026-05-05 20:53 46.10967 2.07458 34907 ft 436 kts 188°
2026-05-05 20:53 46.04982 2.06352 34909 ft 436 kts 188°
2026-05-05 20:54 45.98953 2.05236 34915 ft 436 kts 188°
2026-05-05 20:54 45.92928 2.04133 34910 ft 436 kts 188°
2026-05-05 20:55 45.86900 2.03025 34913 ft 435 kts 188°
2026-05-05 20:55 45.80936 2.01929 34917 ft 435 kts 188°
2026-05-05 20:56 45.74921 2.00821 34919 ft 435 kts 188°
2026-05-05 20:56 45.68914 1.99725 34920 ft 435 kts 188°
2026-05-05 20:57 45.62910 1.98622 34923 ft 435 kts 188°
2026-05-05 20:57 45.56903 1.97519 34928 ft 435 kts 188°
2026-05-05 20:58 45.50894 1.96437 34933 ft 435 kts 188°
2026-05-05 20:58 45.44890 1.95351 34938 ft 434 kts 188°
2026-05-05 20:59 45.38931 1.94274 34936 ft 434 kts 188°
2026-05-05 20:59 45.32943 1.93196 34959 ft 434 kts 188°
2026-05-05 21:00 45.27922 1.92289 34953 ft 434 kts 188°
2026-05-05 21:00 45.21926 1.91204 34947 ft 434 kts 188°
2026-05-05 21:01 45.15962 1.90138 34943 ft 435 kts 188°
2026-05-05 21:01 45.09958 1.89073 34947 ft 435 kts 188°
2026-05-05 21:02 45.03960 1.88008 34950 ft 434 kts 188°
2026-05-05 21:02 44.97960 1.86931 34948 ft 434 kts 189°
2026-05-05 21:03 44.91957 1.85858 34289 ft 437 kts 189°
2026-05-05 21:03 44.88916 1.85321 33267 ft 442 kts 188°
2026-05-05 21:03 44.85859 1.84779 32302 ft 443 kts 188°
2026-05-05 21:04 44.82805 1.84237 31519 ft 440 kts 188°
2026-05-05 21:04 44.79792 1.83705 31255 ft 433 kts 188°
2026-05-05 21:04 44.76804 1.83180 30573 ft 432 kts 188°
2026-05-05 21:04 44.73840 1.82658 29364 ft 437 kts 188°
2026-05-05 21:05 44.70801 1.82121 28053 ft 442 kts 188°
2026-05-05 21:05 44.67737 1.81581 26788 ft 444 kts 188°
2026-05-05 21:05 44.64654 1.81037 25613 ft 446 kts 188°
2026-05-05 21:05 44.61593 1.80501 24835 ft 439 kts 188°
2026-05-05 21:06 44.58580 1.79971 24037 ft 432 kts 188°
2026-05-05 21:06 44.55659 1.79457 23184 ft 427 kts 188°
2026-05-05 21:06 44.52720 1.78940 22225 ft 424 kts 188°
2026-05-05 21:06 44.49816 1.78430 21512 ft 417 kts 188°
2026-05-05 21:07 44.46961 1.77930 20876 ft 410 kts 188°
2026-05-05 21:07 44.44155 1.77440 20270 ft 403 kts 188°
2026-05-05 21:07 44.41394 1.76957 19680 ft 397 kts 188°
2026-05-05 21:07 44.38676 1.76482 19125 ft 390 kts 188°
2026-05-05 21:08 44.36003 1.76015 18605 ft 384 kts 188°
2026-05-05 21:08 44.33361 1.75556 18059 ft 379 kts 188°
2026-05-05 21:08 44.30798 1.74877 17523 ft 372 kts 197°
2026-05-05 21:08 44.28406 1.73592 17015 ft 366 kts 207°
2026-05-05 21:09 44.26249 1.71762 16479 ft 360 kts 216°
2026-05-05 21:09 44.24201 1.69781 15975 ft 357 kts 215°
2026-05-05 21:09 44.22159 1.67820 15435 ft 355 kts 215°
2026-05-05 21:09 44.20125 1.65877 14918 ft 353 kts 215°
2026-05-05 21:10 44.18102 1.63947 14340 ft 352 kts 215°
2026-05-05 21:10 44.16110 1.62048 13787 ft 351 kts 215°
2026-05-05 21:10 44.14097 1.60128 13157 ft 351 kts 215°
2026-05-05 21:10 44.12089 1.58215 12570 ft 348 kts 215°
2026-05-05 21:11 44.10099 1.56322 11973 ft 346 kts 215°
2026-05-05 21:11 44.08116 1.54438 11365 ft 344 kts 215°
2026-05-05 21:11 44.06147 1.52567 10822 ft 341 kts 216°
2026-05-05 21:11 44.04225 1.50746 10373 ft 334 kts 215°
2026-05-05 21:12 44.02314 1.48942 10059 ft 325 kts 216°
2026-05-05 21:12 44.00520 1.47241 9923 ft 298 kts 216°
2026-05-05 21:12 43.98865 1.45665 9591 ft 281 kts 217°
2026-05-05 21:12 43.97455 1.43848 8955 ft 273 kts 232°
2026-05-05 21:13 43.96266 1.41805 8261 ft 271 kts 232°
2026-05-05 21:13 43.95076 1.39806 7606 ft 268 kts 232°
2026-05-05 21:13 43.93884 1.37809 7160 ft 268 kts 232°
2026-05-05 21:13 43.92722 1.35833 6769 ft 266 kts 233°
2026-05-05 21:14 43.91554 1.33842 6378 ft 265 kts 233°
2026-05-05 21:14 43.90390 1.31862 5953 ft 264 kts 233°
2026-05-05 21:14 43.89230 1.29896 5522 ft 263 kts 233°
2026-05-05 21:14 43.88073 1.27939 5109 ft 261 kts 233°
2026-05-05 21:15 43.86919 1.26004 4685 ft 260 kts 230°
2026-05-05 21:15 43.85569 1.24396 4501 ft 251 kts 216°
2026-05-05 21:15 43.84131 1.23123 4366 ft 239 kts 215°
2026-05-05 21:15 43.82754 1.21894 4268 ft 232 kts 216°
2026-05-05 21:16 43.81425 1.20701 4176 ft 224 kts 216°
2026-05-05 21:16 43.80038 1.19739 4059 ft 226 kts 194°
2026-05-05 21:16 43.78499 1.19955 3941 ft 230 kts 156°
2026-05-05 21:16 43.77172 1.21174 3688 ft 230 kts 143°
2026-05-05 21:17 43.75916 1.22546 3390 ft 230 kts 144°
2026-05-05 21:17 43.74655 1.23889 3077 ft 225 kts 144°
2026-05-05 21:17 43.73455 1.25150 2810 ft 206 kts 145°
2026-05-05 21:17 43.72359 1.26297 2523 ft 189 kts 146°
2026-05-05 21:18 43.71347 1.27354 2275 ft 176 kts 146°
2026-05-05 21:18 43.70407 1.28335 2037 ft 168 kts 147°
2026-05-05 21:18 43.69497 1.29305 1792 ft 162 kts 146°
2026-05-05 21:18 43.68618 1.30250 1541 ft 158 kts 148°
2026-05-05 21:19 43.67749 1.31119 1349 ft 151 kts 146°
2026-05-05 21:19 43.66926 1.31981 1179 ft 147 kts 144°
2026-05-05 21:19 43.66124 1.32845 1009 ft 144 kts 146°
2026-05-05 21:19 43.65319 1.33653 769 ft 141 kts 147°
2026-05-05 21:20 43.64543 1.34470 595 ft 139 kts 146°
2026-05-05 21:20 43.63781 1.35257 502 ft 129 kts 145°
2026-05-05 21:20 43.63149 1.35897 492 ft 90 kts 143°
2026-05-05 21:20 43.62767 1.36291 489 ft 57 kts 141°
2026-05-05 21:21 43.62538 1.36546 489 ft 29 kts 138°
2026-05-05 21:21 43.62454 1.36769 491 ft 21 kts 95°
2026-05-05 21:21 43.62461 1.36893 491 ft 0 kts 81°
2026-05-05 21:22 43.62469 1.36976 494 ft 20 kts 83°
2026-05-05 21:22 43.62488 1.37182 488 ft 19 kts 79°
2026-05-05 21:22 43.62514 1.37249 493 ft 4 kts 56°
2026-05-05 21:22 43.62573 1.37364 483 ft 22 kts 54°
2026-05-05 21:23 43.62671 1.37485 490 ft 17 kts 357°
2026-05-05 21:23 43.62761 1.37400 482 ft 10 kts 321°
2026-05-05 21:23 43.62779 1.37385 483 ft 2 kts 347°
2026-05-05 21:23 43.62783 1.37384 494 ft 0 kts 345°
2026-05-05 21:24 43.62803 1.37360 494 ft 10 kts 319°
2026-05-05 21:24 43.62888 1.37267 489 ft 18 kts 321°
2026-05-05 21:24 43.62960 1.37189 489 ft 7 kts 322°
2026-05-05 21:24 43.62999 1.37172 492 ft 6 kts 32°
2026-05-05 21:25 43.63018 1.37213 492 ft 5 kts 58°
2026-05-05 21:25 43.63033 1.37242 483 ft 3 kts 53°
2026-05-05 21:25 43.63036 1.37248 494 ft 0 kts 53°